Year,Month,Day,Hour,Minute,Value (Times are PST for temperature in C)
2018,08,22,00,00,17.90
2018,08,22,00,01,17.90
2018,08,22,00,02,17.90
2018,08,22,00,03,17.90
2018,08,22,00,04,17.90
2018,08,22,00,05,17.90
2018,08,22,00,06,17.80
2018,08,22,00,07,17.80
2018,08,22,00,08,17.80
2018,08,22,00,09,17.80
2018,08,22,00,10,17.80
2018,08,22,00,11,17.70
2018,08,22,00,12,17.70
2018,08,22,00,13,17.70
2018,08,22,00,14,17.70
2018,08,22,00,15,17.70
2018,08,22,00,16,17.70
2018,08,22,00,17,17.70
2018,08,22,00,18,17.70
2018,08,22,00,19,17.70
2018,08,22,00,20,17.60
2018,08,22,00,21,17.60
2018,08,22,00,22,17.60
2018,08,22,00,23,17.60
2018,08,22,00,24,17.60
2018,08,22,00,25,17.60
2018,08,22,00,26,17.60
2018,08,22,00,27,17.60
2018,08,22,00,28,17.60
2018,08,22,00,29,17.60
2018,08,22,00,30,17.60
2018,08,22,00,31,17.50
2018,08,22,00,32,17.50
2018,08,22,00,33,17.50
2018,08,22,00,34,17.50
2018,08,22,00,35,17.50
2018,08,22,00,36,17.50
2018,08,22,00,37,17.50
2018,08,22,00,38,17.50
2018,08,22,00,39,17.50
2018,08,22,00,40,17.50
2018,08,22,00,41,17.40
2018,08,22,00,42,17.40
2018,08,22,00,43,17.40
2018,08,22,00,44,17.40
2018,08,22,00,45,17.40
2018,08,22,00,46,17.30
2018,08,22,00,47,17.30
2018,08,22,00,48,17.30
2018,08,22,00,49,17.30
2018,08,22,00,50,17.30
2018,08,22,00,51,17.30
2018,08,22,00,52,17.30
2018,08,22,00,53,17.30
2018,08,22,00,54,17.30
2018,08,22,00,55,17.30
2018,08,22,00,56,17.20
2018,08,22,00,57,17.20
2018,08,22,00,58,17.20
2018,08,22,00,59,17.20
2018,08,22,01,00,17.10
2018,08,22,01,01,17.10
2018,08,22,01,02,17.10
2018,08,22,01,03,17.10
2018,08,22,01,04,17.10
2018,08,22,01,05,17.10
2018,08,22,01,06,17.00
2018,08,22,01,07,17.00
2018,08,22,01,08,17.00
2018,08,22,01,09,17.00
2018,08,22,01,10,17.00
2018,08,22,01,11,17.00
2018,08,22,01,12,16.90
2018,08,22,01,13,16.90
2018,08,22,01,14,16.90
2018,08,22,01,15,16.90
2018,08,22,01,16,16.90
2018,08,22,01,17,16.80
2018,08,22,01,18,16.80
2018,08,22,01,19,16.80
2018,08,22,01,20,16.80
2018,08,22,01,21,16.80
2018,08,22,01,22,16.80
2018,08,22,01,23,16.80
2018,08,22,01,24,16.80
2018,08,22,01,25,16.70
2018,08,22,01,26,16.70
2018,08,22,01,27,16.70
2018,08,22,01,28,16.70
2018,08,22,01,29,16.70
2018,08,22,01,30,16.70
2018,08,22,01,31,16.70
2018,08,22,01,32,16.70
2018,08,22,01,33,16.70
2018,08,22,01,34,16.70
2018,08,22,01,35,16.70
2018,08,22,01,36,16.60
2018,08,22,01,37,16.60
2018,08,22,01,38,16.60
2018,08,22,01,39,16.60
2018,08,22,01,40,16.60
2018,08,22,01,41,16.60
2018,08,22,01,42,16.60
2018,08,22,01,43,16.50
2018,08,22,01,44,16.40
2018,08,22,01,45,16.40
2018,08,22,01,46,16.40
2018,08,22,01,47,16.40
2018,08,22,01,48,16.40
2018,08,22,01,49,16.40
2018,08,22,01,50,16.30
2018,08,22,01,51,16.30
2018,08,22,01,52,16.30
2018,08,22,01,53,16.30
2018,08,22,01,54,16.30
2018,08,22,01,55,16.30
2018,08,22,01,56,16.30
2018,08,22,01,57,16.30
2018,08,22,01,58,16.20
2018,08,22,01,59,16.20
2018,08,22,02,00,16.20
2018,08,22,02,01,16.20
2018,08,22,02,02,16.20
2018,08,22,02,03,16.10
2018,08,22,02,04,16.10
2018,08,22,02,05,16.10
2018,08,22,02,06,16.20
2018,08,22,02,07,16.10
2018,08,22,02,08,16.10
2018,08,22,02,09,16.10
2018,08,22,02,10,16.10
2018,08,22,02,11,16.10
2018,08,22,02,12,16.10
2018,08,22,02,13,16.10
2018,08,22,02,14,16.10
2018,08,22,02,15,16.10
2018,08,22,02,16,16.10
2018,08,22,02,17,16.10
2018,08,22,02,18,16.00
2018,08,22,02,19,15.90
2018,08,22,02,20,15.90
2018,08,22,02,21,15.90
2018,08,22,02,22,15.90
2018,08,22,02,23,15.80
2018,08,22,02,24,15.80
2018,08,22,02,25,15.80
2018,08,22,02,26,15.80
2018,08,22,02,27,15.80
2018,08,22,02,28,15.80
2018,08,22,02,29,15.70
2018,08,22,02,30,15.70
2018,08,22,02,31,15.70
2018,08,22,02,32,15.60
2018,08,22,02,33,15.60
2018,08,22,02,34,15.60
2018,08,22,02,35,15.60
2018,08,22,02,36,15.60
2018,08,22,02,37,15.50
2018,08,22,02,38,15.50
2018,08,22,02,39,15.50
2018,08,22,02,40,15.50
2018,08,22,02,41,15.50
2018,08,22,02,42,15.50
2018,08,22,02,43,15.50
2018,08,22,02,44,15.50
2018,08,22,02,45,15.50
2018,08,22,02,46,15.40
2018,08,22,02,47,15.40
2018,08,22,02,48,15.40
2018,08,22,02,49,15.40
2018,08,22,02,50,15.30
2018,08,22,02,51,15.30
2018,08,22,02,52,15.30
2018,08,22,02,53,15.30
2018,08,22,02,54,15.30
2018,08,22,02,55,15.30
2018,08,22,02,56,15.30
2018,08,22,02,57,15.30
2018,08,22,02,58,15.30
2018,08,22,02,59,15.30
2018,08,22,03,00,15.30
2018,08,22,03,01,15.30
2018,08,22,03,02,15.30
2018,08,22,03,03,15.30
2018,08,22,03,04,15.30
2018,08,22,03,05,15.30
2018,08,22,03,06,15.30
2018,08,22,03,07,15.20
2018,08,22,03,08,15.20
2018,08,22,03,09,15.20
2018,08,22,03,10,15.20
2018,08,22,03,11,15.20
2018,08,22,03,12,15.20
2018,08,22,03,13,15.20
2018,08,22,03,14,15.20
2018,08,22,03,15,15.20
2018,08,22,03,16,15.20
2018,08,22,03,17,15.20
2018,08,22,03,18,15.20
2018,08,22,03,19,15.20
2018,08,22,03,20,15.20
2018,08,22,03,21,15.20
2018,08,22,03,22,15.20
2018,08,22,03,23,15.20
2018,08,22,03,24,15.20
2018,08,22,03,25,15.20
2018,08,22,03,26,15.20
2018,08,22,03,27,15.20
2018,08,22,03,28,15.20
2018,08,22,03,29,15.20
2018,08,22,03,30,15.20
2018,08,22,03,31,15.20
2018,08,22,03,32,15.20
2018,08,22,03,33,15.20
2018,08,22,03,34,15.20
2018,08,22,03,35,15.20
2018,08,22,03,36,15.10
2018,08,22,03,37,15.10
2018,08,22,03,38,15.10
2018,08,22,03,39,15.10
2018,08,22,03,40,15.20
2018,08,22,03,41,15.20
2018,08,22,03,42,15.10
2018,08,22,03,43,15.10
2018,08,22,03,44,15.10
2018,08,22,03,45,15.10
2018,08,22,03,46,15.10
2018,08,22,03,47,15.10
2018,08,22,03,48,15.00
2018,08,22,03,49,15.00
2018,08,22,03,50,15.00
2018,08,22,03,51,15.00
2018,08,22,03,52,15.00
2018,08,22,03,53,14.90
2018,08,22,03,54,14.90
2018,08,22,03,55,14.90
2018,08,22,03,56,14.90
2018,08,22,03,57,14.90
2018,08,22,03,58,14.90
2018,08,22,03,59,14.90
2018,08,22,04,00,14.90
2018,08,22,04,01,14.90
2018,08,22,04,02,14.80
2018,08,22,04,03,14.80
2018,08,22,04,04,14.80
2018,08,22,04,05,14.80
2018,08,22,04,06,14.80
2018,08,22,04,07,14.80
2018,08,22,04,08,14.80
2018,08,22,04,09,14.80
2018,08,22,04,10,14.80
2018,08,22,04,11,14.80
2018,08,22,04,12,14.70
2018,08,22,04,13,14.70
2018,08,22,04,14,14.70
2018,08,22,04,15,14.60
2018,08,22,04,16,14.60
2018,08,22,04,17,14.60
2018,08,22,04,18,14.60
2018,08,22,04,19,14.60
2018,08,22,04,20,14.60
2018,08,22,04,21,14.60
2018,08,22,04,22,14.60
2018,08,22,04,23,14.60
2018,08,22,04,24,14.50
2018,08,22,04,25,14.50
2018,08,22,04,26,14.50
2018,08,22,04,27,14.50
2018,08,22,04,28,14.50
2018,08,22,04,29,14.50
2018,08,22,04,30,14.50
2018,08,22,04,31,14.50
2018,08,22,04,32,14.50
2018,08,22,04,33,14.50
2018,08,22,04,34,14.50
2018,08,22,04,35,14.50
2018,08,22,04,36,14.50
2018,08,22,04,37,14.50
2018,08,22,04,38,14.50
2018,08,22,04,39,14.50
2018,08,22,04,40,14.50
2018,08,22,04,41,14.50
2018,08,22,04,42,14.50
2018,08,22,04,43,14.50
2018,08,22,04,44,14.50
2018,08,22,04,45,14.50
2018,08,22,04,46,14.50
2018,08,22,04,47,14.40
2018,08,22,04,48,14.40
2018,08,22,04,49,14.40
2018,08,22,04,50,14.40
2018,08,22,04,51,14.40
2018,08,22,04,52,14.40
2018,08,22,04,53,14.40
2018,08,22,04,54,14.40
2018,08,22,04,55,14.30
2018,08,22,04,56,14.30
2018,08,22,04,57,14.30
2018,08,22,04,58,14.30
2018,08,22,04,59,14.20
2018,08,22,05,00,14.20
2018,08,22,05,01,14.20
2018,08,22,05,02,14.20
2018,08,22,05,03,14.20
2018,08,22,05,04,14.20
2018,08,22,05,05,14.20
2018,08,22,05,06,14.20
2018,08,22,05,07,14.20
2018,08,22,05,08,14.20
2018,08,22,05,09,14.20
2018,08,22,05,10,14.20
2018,08,22,05,11,14.20
2018,08,22,05,12,14.10
2018,08,22,05,13,14.10
2018,08,22,05,14,14.10
2018,08,22,05,15,14.10
2018,08,22,05,16,14.10
2018,08,22,05,17,14.10
2018,08,22,05,18,14.10
2018,08,22,05,19,14.10
2018,08,22,05,20,14.10
2018,08,22,05,21,14.10
2018,08,22,05,22,14.10
2018,08,22,05,23,14.00
2018,08,22,05,24,14.00
2018,08,22,05,25,14.00
2018,08,22,05,26,14.00
2018,08,22,05,27,14.00
2018,08,22,05,28,13.90
2018,08,22,05,29,13.90
2018,08,22,05,30,13.90
2018,08,22,05,31,13.90
2018,08,22,05,32,13.90
2018,08,22,05,33,13.90
2018,08,22,05,34,13.90
2018,08,22,05,35,13.90
2018,08,22,05,36,13.90
2018,08,22,05,37,13.90
2018,08,22,05,38,13.90
2018,08,22,05,39,13.90
2018,08,22,05,40,13.90
2018,08,22,05,41,13.90
2018,08,22,05,42,13.90
2018,08,22,05,43,13.80
2018,08,22,05,44,13.80
2018,08,22,05,45,13.80
2018,08,22,05,46,13.80
2018,08,22,05,47,13.80
2018,08,22,05,48,13.80
2018,08,22,05,49,13.80
2018,08,22,05,50,13.70
2018,08,22,05,51,13.70
2018,08,22,05,52,13.70
2018,08,22,05,53,13.70
2018,08,22,05,54,13.70
2018,08,22,05,55,13.70
2018,08,22,05,56,13.70
2018,08,22,05,57,13.70
2018,08,22,05,58,13.70
2018,08,22,05,59,13.70
2018,08,22,06,00,13.70
2018,08,22,06,01,13.70
2018,08,22,06,02,13.70
2018,08,22,06,03,13.70
2018,08,22,06,04,13.70
2018,08,22,06,05,13.70
2018,08,22,06,06,13.70
2018,08,22,06,07,13.70
2018,08,22,06,08,13.70
2018,08,22,06,09,13.70
2018,08,22,06,10,13.70
2018,08,22,06,11,13.70
2018,08,22,06,12,13.70
2018,08,22,06,13,13.70
2018,08,22,06,14,13.70
2018,08,22,06,15,13.70
2018,08,22,06,16,13.70
2018,08,22,06,17,13.70
2018,08,22,06,18,13.70
2018,08,22,06,19,13.70
2018,08,22,06,20,13.70
2018,08,22,06,21,13.70
2018,08,22,06,22,13.70
2018,08,22,06,23,13.70
2018,08,22,06,24,13.70
2018,08,22,06,25,13.70
2018,08,22,06,26,13.70
2018,08,22,06,27,13.70
2018,08,22,06,28,13.70
2018,08,22,06,29,13.70
2018,08,22,06,30,13.70
2018,08,22,06,31,13.70
2018,08,22,06,32,13.70
2018,08,22,06,33,13.70
2018,08,22,06,34,13.70
2018,08,22,06,35,13.70
2018,08,22,06,36,13.70
2018,08,22,06,37,13.70
2018,08,22,06,38,13.70
2018,08,22,06,39,13.70
2018,08,22,06,40,13.70
2018,08,22,06,41,13.70
2018,08,22,06,42,13.70
2018,08,22,06,43,13.70
2018,08,22,06,44,13.70
2018,08,22,06,45,13.70
2018,08,22,06,46,13.70
2018,08,22,06,47,13.70
2018,08,22,06,48,13.70
2018,08,22,06,49,13.70
2018,08,22,06,50,13.70
2018,08,22,06,51,13.70
2018,08,22,06,52,13.70
2018,08,22,06,53,13.70
2018,08,22,06,54,13.70
2018,08,22,06,55,13.70
2018,08,22,06,56,13.70
2018,08,22,06,57,13.70
2018,08,22,06,58,13.70
2018,08,22,06,59,13.70
2018,08,22,07,00,13.70
2018,08,22,07,01,13.70
2018,08,22,07,02,13.70
2018,08,22,07,03,13.70
2018,08,22,07,04,13.70
2018,08,22,07,05,13.70
2018,08,22,07,06,13.80
2018,08,22,07,07,13.80
2018,08,22,07,08,13.80
2018,08,22,07,09,13.80
2018,08,22,07,10,13.80
2018,08,22,07,11,13.90
2018,08,22,07,12,13.90
2018,08,22,07,13,13.90
2018,08,22,07,14,13.90
2018,08,22,07,15,13.90
2018,08,22,07,16,14.00
2018,08,22,07,17,14.00
2018,08,22,07,18,14.00
2018,08,22,07,19,14.00
2018,08,22,07,20,14.00
2018,08,22,07,21,14.10
2018,08,22,07,22,14.10
2018,08,22,07,23,14.10
2018,08,22,07,24,14.10
2018,08,22,07,25,14.10
2018,08,22,07,26,14.10
2018,08,22,07,27,14.20
2018,08,22,07,28,14.20
2018,08,22,07,29,14.20
2018,08,22,07,30,14.20
2018,08,22,07,31,14.20
2018,08,22,07,32,14.20
2018,08,22,07,33,14.20
2018,08,22,07,34,14.20
2018,08,22,07,35,14.20
2018,08,22,07,36,14.20
2018,08,22,07,37,14.20
2018,08,22,07,38,14.30
2018,08,22,07,39,14.30
2018,08,22,07,40,14.40
2018,08,22,07,41,14.50
2018,08,22,07,42,14.50
2018,08,22,07,43,14.60
2018,08,22,07,44,14.60
2018,08,22,07,45,14.70
2018,08,22,07,46,14.80
2018,08,22,07,47,14.80
2018,08,22,07,48,14.90
2018,08,22,07,49,14.90
2018,08,22,07,50,15.00
2018,08,22,07,51,15.00
2018,08,22,07,52,15.00
2018,08,22,07,53,15.10
2018,08,22,07,54,15.20
2018,08,22,07,55,15.20
2018,08,22,07,56,15.30
2018,08,22,07,57,15.30
2018,08,22,07,58,15.30
2018,08,22,07,59,15.30
2018,08,22,08,00,15.40
2018,08,22,08,01,15.40
2018,08,22,08,02,15.50
2018,08,22,08,03,15.50
2018,08,22,08,04,15.60
2018,08,22,08,05,15.60
2018,08,22,08,06,15.70
2018,08,22,08,07,15.80
2018,08,22,08,08,15.80
2018,08,22,08,09,15.80
2018,08,22,08,10,15.90
2018,08,22,08,11,16.00
2018,08,22,08,12,16.10
2018,08,22,08,13,16.10
2018,08,22,08,14,16.20
2018,08,22,08,15,16.30
2018,08,22,08,16,16.40
2018,08,22,08,17,16.40
2018,08,22,08,18,16.50
2018,08,22,08,19,16.60
2018,08,22,08,20,16.70
2018,08,22,08,21,16.70
2018,08,22,08,22,16.80
2018,08,22,08,23,16.80
2018,08,22,08,24,16.90
2018,08,22,08,25,17.00
2018,08,22,08,26,17.00
2018,08,22,08,27,17.10
2018,08,22,08,28,17.20
2018,08,22,08,29,17.30
2018,08,22,08,30,17.30
2018,08,22,08,31,17.40
2018,08,22,08,32,17.50
2018,08,22,08,33,17.50
2018,08,22,08,34,17.60
2018,08,22,08,35,17.70
2018,08,22,08,36,17.80
2018,08,22,08,37,17.80
2018,08,22,08,38,17.90
2018,08,22,08,39,17.90
2018,08,22,08,40,18.00
2018,08,22,08,41,18.10
2018,08,22,08,42,18.20
2018,08,22,08,43,18.20
2018,08,22,08,44,18.30
2018,08,22,08,45,18.40
2018,08,22,08,46,18.50
2018,08,22,08,47,18.60
2018,08,22,08,48,18.80
2018,08,22,08,49,18.90
2018,08,22,08,50,19.00
2018,08,22,08,51,19.10
2018,08,22,08,52,19.30
2018,08,22,08,53,19.40
2018,08,22,08,54,19.50
2018,08,22,08,55,19.60
2018,08,22,08,56,19.70
2018,08,22,08,57,19.80
2018,08,22,08,58,19.90
2018,08,22,08,59,19.90
2018,08,22,09,00,20.00
2018,08,22,09,01,20.10
2018,08,22,09,02,20.20
2018,08,22,09,03,20.20
2018,08,22,09,04,20.30
2018,08,22,09,05,20.40
2018,08,22,09,06,20.50
2018,08,22,09,07,20.50
2018,08,22,09,08,20.60
2018,08,22,09,09,20.70
2018,08,22,09,10,20.70
2018,08,22,09,11,20.80
2018,08,22,09,12,20.90
2018,08,22,09,13,20.90
2018,08,22,09,14,20.90
2018,08,22,09,15,20.90
2018,08,22,09,16,21.00
2018,08,22,09,17,21.00
2018,08,22,09,18,21.00
2018,08,22,09,19,21.10
2018,08,22,09,20,21.10
2018,08,22,09,21,21.20
2018,08,22,09,22,21.20
2018,08,22,09,23,21.30
2018,08,22,09,24,21.30
2018,08,22,09,25,21.30
2018,08,22,09,26,21.30
2018,08,22,09,27,21.30
2018,08,22,09,28,21.30
2018,08,22,09,29,21.30
2018,08,22,09,30,21.30
2018,08,22,09,31,21.30
2018,08,22,09,32,21.30
2018,08,22,09,33,21.30
2018,08,22,09,34,21.30
2018,08,22,09,35,21.30
2018,08,22,09,36,21.30
2018,08,22,09,37,21.30
2018,08,22,09,38,21.40
2018,08,22,09,39,21.50
2018,08,22,09,40,21.60
2018,08,22,09,41,21.60
2018,08,22,09,42,21.70
2018,08,22,09,43,21.70
2018,08,22,09,44,21.80
2018,08,22,09,45,21.80
2018,08,22,09,46,21.80
2018,08,22,09,47,21.90
2018,08,22,09,48,21.90
2018,08,22,09,49,22.00
2018,08,22,09,50,22.00
2018,08,22,09,51,22.10
2018,08,22,09,52,22.10
2018,08,22,09,53,22.10
2018,08,22,09,54,22.20
2018,08,22,09,55,22.20
2018,08,22,09,56,22.30
2018,08,22,09,57,22.30
2018,08,22,09,58,22.40
2018,08,22,09,59,22.40
2018,08,22,10,00,22.40
2018,08,22,10,01,22.50
2018,08,22,10,02,22.60
2018,08,22,10,03,22.60
2018,08,22,10,04,22.70
2018,08,22,10,05,22.70
2018,08,22,10,06,22.70
2018,08,22,10,07,22.70
2018,08,22,10,08,22.70
2018,08,22,10,09,22.80
2018,08,22,10,10,22.80
2018,08,22,10,11,22.90
2018,08,22,10,12,22.90
2018,08,22,10,13,22.90
2018,08,22,10,14,22.90
2018,08,22,10,15,22.90
2018,08,22,10,16,22.90
2018,08,22,10,17,22.90
2018,08,22,10,18,22.90
2018,08,22,10,19,23.00
2018,08,22,10,20,23.10
2018,08,22,10,21,23.10
2018,08,22,10,22,23.20
2018,08,22,10,23,23.30
2018,08,22,10,24,23.30
2018,08,22,10,25,23.40
2018,08,22,10,26,23.60
2018,08,22,10,27,23.70
2018,08,22,10,28,23.70
2018,08,22,10,29,23.80
2018,08,22,10,30,23.80
2018,08,22,10,31,23.80
2018,08,22,10,32,23.80
2018,08,22,10,33,23.80
2018,08,22,10,34,23.80
2018,08,22,10,35,23.70
2018,08,22,10,36,23.70
2018,08,22,10,37,23.70
2018,08,22,10,38,23.70
2018,08,22,10,39,23.70
2018,08,22,10,40,23.70
2018,08,22,10,41,23.80
2018,08,22,10,42,23.80
2018,08,22,10,43,23.80
2018,08,22,10,44,23.90
2018,08,22,10,45,24.00
2018,08,22,10,46,24.00
2018,08,22,10,47,23.90
2018,08,22,10,48,24.00
2018,08,22,10,49,24.10
2018,08,22,10,50,24.10
2018,08,22,10,51,24.10
2018,08,22,10,52,23.90
2018,08,22,10,53,23.90
2018,08,22,10,54,23.80
2018,08,22,10,55,23.80
2018,08,22,10,56,23.80
2018,08,22,10,57,23.80
2018,08,22,10,58,23.80
2018,08,22,10,59,23.80
2018,08,22,11,00,23.90
2018,08,22,11,01,23.90
2018,08,22,11,02,24.00
2018,08,22,11,03,24.00
2018,08,22,11,04,23.90
2018,08,22,11,05,23.90
2018,08,22,11,06,23.90
2018,08,22,11,07,23.80
2018,08,22,11,08,23.80
2018,08,22,11,09,23.70
2018,08,22,11,10,23.70
2018,08,22,11,11,23.70
2018,08,22,11,12,23.70
2018,08,22,11,13,23.70
2018,08,22,11,14,23.60
2018,08,22,11,15,23.60
2018,08,22,11,16,23.60
2018,08,22,11,17,23.70
2018,08,22,11,18,23.70
2018,08,22,11,19,23.70
2018,08,22,11,20,23.80
2018,08,22,11,21,23.80
2018,08,22,11,22,23.80
2018,08,22,11,23,23.70
2018,08,22,11,24,23.70
2018,08,22,11,25,23.70
2018,08,22,11,26,23.70
2018,08,22,11,27,23.70
2018,08,22,11,28,23.70
2018,08,22,11,29,23.70
2018,08,22,11,30,23.80
2018,08,22,11,31,23.90
2018,08,22,11,32,23.90
2018,08,22,11,33,23.90
2018,08,22,11,34,23.90
2018,08,22,11,35,23.90
2018,08,22,11,36,23.80
2018,08,22,11,37,23.60
2018,08,22,11,38,23.60
2018,08,22,11,39,23.40
2018,08,22,11,40,23.30
2018,08,22,11,41,23.20
2018,08,22,11,42,23.20
2018,08,22,11,43,23.30
2018,08,22,11,44,23.30
2018,08,22,11,45,23.40
2018,08,22,11,46,23.50
2018,08,22,11,47,23.70
2018,08,22,11,48,23.70
2018,08,22,11,49,23.70
2018,08,22,11,50,23.70
2018,08,22,11,51,23.70
2018,08,22,11,52,23.80
2018,08,22,11,53,23.80
2018,08,22,11,54,23.60
2018,08,22,11,55,23.50
2018,08,22,11,56,23.30
2018,08,22,11,57,23.20
2018,08,22,11,58,23.30
2018,08,22,11,59,23.30
2018,08,22,12,00,23.30
2018,08,22,12,01,23.30
2018,08,22,12,02,23.50
2018,08,22,12,03,23.60
2018,08,22,12,04,23.70
2018,08,22,12,05,23.70
2018,08,22,12,06,23.80
2018,08,22,12,07,23.90
2018,08,22,12,08,23.90
2018,08,22,12,09,23.90
2018,08,22,12,10,23.90
2018,08,22,12,11,23.70
2018,08,22,12,12,23.70
2018,08,22,12,13,23.80
2018,08,22,12,14,23.90
2018,08,22,12,15,23.90
2018,08,22,12,16,24.00
2018,08,22,12,17,24.10
2018,08,22,12,18,24.10
2018,08,22,12,19,24.10
2018,08,22,12,20,24.10
2018,08,22,12,21,24.10
2018,08,22,12,22,23.90
2018,08,22,12,23,23.80
2018,08,22,12,24,23.70
2018,08,22,12,25,23.70
2018,08,22,12,26,23.60
2018,08,22,12,27,23.60
2018,08,22,12,28,23.60
2018,08,22,12,29,23.60
2018,08,22,12,30,23.60
2018,08,22,12,31,23.70
2018,08,22,12,32,23.70
2018,08,22,12,33,23.70
2018,08,22,12,34,23.70
2018,08,22,12,35,23.70
2018,08,22,12,36,23.90
2018,08,22,12,37,24.00
2018,08,22,12,38,24.10
2018,08,22,12,39,24.10
2018,08,22,12,40,24.20
2018,08,22,12,41,24.30
2018,08,22,12,42,24.20
2018,08,22,12,43,24.20
2018,08,22,12,44,24.30
2018,08,22,12,45,24.30
2018,08,22,12,46,24.40
2018,08,22,12,47,24.40
2018,08,22,12,48,24.30
2018,08,22,12,49,24.30
2018,08,22,12,50,24.40
2018,08,22,12,51,24.40
2018,08,22,12,52,24.50
2018,08,22,12,53,24.60
2018,08,22,12,54,24.70
2018,08,22,12,55,24.70
2018,08,22,12,56,24.60
2018,08,22,12,57,24.40
2018,08,22,12,58,24.40
2018,08,22,12,59,24.50
2018,08,22,13,00,24.40
2018,08,22,13,01,24.30
2018,08,22,13,02,24.40
2018,08,22,13,03,24.40
2018,08,22,13,04,24.40
2018,08,22,13,05,24.40
2018,08,22,13,06,24.40
2018,08,22,13,07,24.40
2018,08,22,13,08,24.40
2018,08,22,13,09,24.40
2018,08,22,13,10,24.50
2018,08,22,13,11,24.50
2018,08,22,13,12,24.50
2018,08,22,13,13,24.50
2018,08,22,13,14,24.40
2018,08,22,13,15,24.20
2018,08,22,13,16,24.10
2018,08,22,13,17,24.20
2018,08,22,13,18,24.20
2018,08,22,13,19,24.30
2018,08,22,13,20,24.30
2018,08,22,13,21,24.30
2018,08,22,13,22,24.30
2018,08,22,13,23,24.40
2018,08,22,13,24,24.30
2018,08,22,13,25,24.20
2018,08,22,13,26,24.30
2018,08,22,13,27,24.40
2018,08,22,13,28,24.40
2018,08,22,13,29,24.40
2018,08,22,13,30,24.50
2018,08,22,13,31,24.60
2018,08,22,13,32,24.60
2018,08,22,13,33,24.70
2018,08,22,13,34,24.70
2018,08,22,13,35,24.70
2018,08,22,13,36,24.70
2018,08,22,13,37,24.60
2018,08,22,13,38,24.50
2018,08,22,13,39,24.50
2018,08,22,13,40,24.30
2018,08,22,13,41,24.30
2018,08,22,13,42,24.40
2018,08,22,13,43,24.50
2018,08,22,13,44,24.50
2018,08,22,13,45,24.40
2018,08,22,13,46,24.50
2018,08,22,13,47,24.50
2018,08,22,13,48,24.50
2018,08,22,13,49,24.70
2018,08,22,13,50,24.80
2018,08,22,13,51,24.90
2018,08,22,13,52,25.00
2018,08,22,13,53,25.00
2018,08,22,13,54,25.00
2018,08,22,13,55,25.10
2018,08,22,13,56,25.10
2018,08,22,13,57,25.10
2018,08,22,13,58,25.20
2018,08,22,13,59,25.20
2018,08,22,14,00,25.30
2018,08,22,14,01,25.40
2018,08,22,14,02,25.50
2018,08,22,14,03,25.60
2018,08,22,14,04,25.70
2018,08,22,14,05,25.70
2018,08,22,14,06,25.70
2018,08,22,14,07,25.80
2018,08,22,14,08,25.80
2018,08,22,14,09,25.80
2018,08,22,14,10,25.90
2018,08,22,14,11,26.00
2018,08,22,14,12,26.00
2018,08,22,14,13,26.10
2018,08,22,14,14,26.00
2018,08,22,14,15,26.00
2018,08,22,14,16,26.00
2018,08,22,14,17,26.10
2018,08,22,14,18,26.20
2018,08,22,14,19,26.10
2018,08,22,14,20,26.00
2018,08,22,14,21,26.00
2018,08,22,14,22,26.00
2018,08,22,14,23,25.90
2018,08,22,14,24,25.80
2018,08,22,14,25,25.70
2018,08,22,14,26,25.80
2018,08,22,14,27,25.90
2018,08,22,14,28,26.00
2018,08,22,14,29,26.00
2018,08,22,14,30,26.00
2018,08,22,14,31,26.10
2018,08,22,14,32,26.20
2018,08,22,14,33,26.30
2018,08,22,14,34,26.30
2018,08,22,14,35,26.40
2018,08,22,14,36,26.40
2018,08,22,14,37,26.40
2018,08,22,14,38,26.40
2018,08,22,14,39,26.60
2018,08,22,14,40,26.60
2018,08,22,14,41,26.60
2018,08,22,14,42,26.70
2018,08,22,14,43,26.80
2018,08,22,14,44,26.80
2018,08,22,14,45,26.80
2018,08,22,14,46,26.80
2018,08,22,14,47,26.90
2018,08,22,14,48,27.00
2018,08,22,14,49,27.10
2018,08,22,14,50,27.10
2018,08,22,14,51,27.10
2018,08,22,14,52,27.10
2018,08,22,14,53,27.10
2018,08,22,14,54,27.00
2018,08,22,14,55,26.90
2018,08,22,14,56,27.00
2018,08,22,14,57,27.10
2018,08,22,14,58,27.10
2018,08,22,14,59,27.20
2018,08,22,15,00,27.30
2018,08,22,15,01,27.30
2018,08,22,15,02,27.30
2018,08,22,15,03,27.30
2018,08,22,15,04,27.30
2018,08,22,15,05,27.30
2018,08,22,15,06,27.30
2018,08,22,15,07,27.30
2018,08,22,15,08,27.40
2018,08,22,15,09,27.60
2018,08,22,15,10,27.50
2018,08,22,15,11,27.40
2018,08,22,15,12,27.30
2018,08,22,15,13,27.30
2018,08,22,15,14,27.30
2018,08,22,15,15,27.40
2018,08,22,15,16,27.40
2018,08,22,15,17,27.50
2018,08,22,15,18,27.50
2018,08,22,15,19,27.60
2018,08,22,15,20,27.60
2018,08,22,15,21,27.60
2018,08,22,15,22,27.70
2018,08,22,15,23,27.70
2018,08,22,15,24,27.80
2018,08,22,15,25,27.80
2018,08,22,15,26,27.70
2018,08,22,15,27,27.70
2018,08,22,15,28,27.80
2018,08,22,15,29,27.70
2018,08,22,15,30,27.70
2018,08,22,15,31,27.60
2018,08,22,15,32,27.60
2018,08,22,15,33,27.60
2018,08,22,15,34,27.50
2018,08,22,15,35,27.40
2018,08,22,15,36,27.30
2018,08,22,15,37,27.20
2018,08,22,15,38,27.10
2018,08,22,15,39,27.10
2018,08,22,15,40,26.90
2018,08,22,15,41,26.90
2018,08,22,15,42,26.90
2018,08,22,15,43,26.90
2018,08,22,15,44,26.80
2018,08,22,15,45,26.90
2018,08,22,15,46,26.90
2018,08,22,15,47,26.90
2018,08,22,15,48,27.00
2018,08,22,15,49,27.10
2018,08,22,15,50,27.10
2018,08,22,15,51,27.10
2018,08,22,15,52,27.10
2018,08,22,15,53,27.10
2018,08,22,15,54,27.20
2018,08,22,15,55,27.20
2018,08,22,15,56,27.10
2018,08,22,15,57,27.10
2018,08,22,15,58,27.20
2018,08,22,15,59,27.20
2018,08,22,16,00,27.30
2018,08,22,16,01,27.30
2018,08,22,16,02,27.30
2018,08,22,16,03,27.30
2018,08,22,16,04,27.20
2018,08,22,16,05,27.20
2018,08,22,16,06,27.30
2018,08,22,16,07,27.30
2018,08,22,16,08,27.30
2018,08,22,16,09,27.30
2018,08,22,16,10,27.30
2018,08,22,16,11,27.30
2018,08,22,16,12,27.40
2018,08,22,16,13,27.40
2018,08,22,16,14,27.50
2018,08,22,16,15,27.50
2018,08,22,16,16,27.40
2018,08,22,16,17,27.40
2018,08,22,16,18,27.50
2018,08,22,16,19,27.50
2018,08,22,16,20,27.30
2018,08,22,16,21,27.30
2018,08,22,16,22,27.30
2018,08,22,16,23,27.30
2018,08,22,16,24,27.30
2018,08,22,16,25,27.30
2018,08,22,16,26,27.30
2018,08,22,16,27,27.30
2018,08,22,16,28,27.30
2018,08,22,16,29,27.30
2018,08,22,16,30,27.30
2018,08,22,16,31,27.30
2018,08,22,16,32,27.30
2018,08,22,16,33,27.30
2018,08,22,16,34,27.30
2018,08,22,16,35,27.30
2018,08,22,16,36,27.30
2018,08,22,16,37,27.30
2018,08,22,16,38,27.30
2018,08,22,16,39,27.30
2018,08,22,16,40,27.30
2018,08,22,16,41,27.30
2018,08,22,16,42,27.30
2018,08,22,16,43,27.20
2018,08,22,16,44,27.10
2018,08,22,16,45,27.10
2018,08,22,16,46,27.20
2018,08,22,16,47,27.20
2018,08,22,16,48,27.20
2018,08,22,16,49,27.20
2018,08,22,16,50,27.30
2018,08,22,16,51,27.30
2018,08,22,16,52,27.30
2018,08,22,16,53,27.30
2018,08,22,16,54,27.40
2018,08,22,16,55,27.30
2018,08,22,16,56,27.30
2018,08,22,16,57,27.20
2018,08,22,16,58,27.20
2018,08,22,16,59,27.20
2018,08,22,17,00,27.10
2018,08,22,17,01,27.20
2018,08,22,17,02,27.10
2018,08,22,17,03,26.90
2018,08,22,17,04,26.90
2018,08,22,17,05,26.80
2018,08,22,17,06,26.80
2018,08,22,17,07,26.70
2018,08,22,17,08,26.70
2018,08,22,17,09,26.60
2018,08,22,17,10,26.60
2018,08,22,17,11,26.60
2018,08,22,17,12,26.50
2018,08,22,17,13,26.40
2018,08,22,17,14,26.30
2018,08,22,17,15,26.30
2018,08,22,17,16,26.20
2018,08,22,17,17,26.20
2018,08,22,17,18,26.10
2018,08,22,17,19,26.00